| time (UTC) | temp C | wind direction | speed KPH | gust KPH | rain 1hr cm | rain 24hr cm | rain mn cm | humidity % | barometer mb |
| 20260506235546 | 3 | 0.0 | 0.0 | 0.00 | 0.18 | 0.00 | 81 | 1013.4 | |
| 20260506234603 | 3 | 0.0 | 0.0 | 0.00 | 0.18 | 0.00 | 82 | 1013.4 | |
| 20260506233540 | 3 | 0.0 | 0.0 | 0.00 | 0.18 | 0.00 | 81 | 1013.5 | |
| 20260506232537 | 3 | 0.0 | 3.2 | 0.00 | 0.18 | 0.00 | 79 | 1013.5 | |
| 20260506231533 | 2 | 189 | 1.6 | 3.2 | 0.00 | 0.18 | 0.00 | 79 | 1013.5 |
| 20260506230531 | 2 | 185 | 1.6 | 3.2 | 0.00 | 0.18 | 0.00 | 81 | 1013.5 |
| 20260506225527 | 2 | 0.0 | 0.0 | 0.00 | 0.18 | 0.18 | 81 | 1013.6 | |
| 20260506224544 | 2 | 0.0 | 3.2 | 0.00 | 0.18 | 0.18 | 81 | 1013.7 | |
| 20260506223521 | 2 | 0.0 | 0.0 | 0.00 | 0.18 | 0.18 | 80 | 1013.6 | |
| 20260506222538 | 2 | 155 | 1.6 | 3.2 | 0.00 | 0.18 | 0.18 | 79 | 1013.7 |
| 20260506221615 | 2 | 0.0 | 3.2 | 0.00 | 0.18 | 0.18 | 81 | 1013.7 | |
| 20260506220612 | 2 | 0.0 | 0.0 | 0.00 | 0.18 | 0.18 | 80 | 1013.7 | |
| 20260506215609 | 2 | 0.0 | 0.0 | 0.00 | 0.18 | 0.18 | 79 | 1013.6 | |
| 20260506214605 | 3 | 83 | 1.6 | 6.4 | 0.00 | 0.18 | 0.18 | 79 | 1013.6 |
| 20260506213643 | 3 | 131 | 3.2 | 6.4 | 0.00 | 0.18 | 0.18 | 78 | 1013.6 |
| 20260506212559 | 3 | 131 | 3.2 | 3.2 | 0.00 | 0.18 | 0.18 | 77 | 1013.6 |
| 20260506211556 | 3 | 135 | 3.2 | 3.2 | 0.00 | 0.18 | 0.18 | 76 | 1013.6 |
| 20260506210633 | 3 | 0.0 | 0.0 | 0.00 | 0.18 | 0.18 | 75 | 1013.6 | |
| 20260506205550 | 3 | 0.0 | 0.0 | 0.00 | 0.18 | 0.18 | 73 | 1013.7 | |
| 20260506204546 | 3 | 0.0 | 0.0 | 0.00 | 0.18 | 0.18 | 73 | 1013.6 | |
| 20260506203544 | 3 | 236 | 1.6 | 3.2 | 0.00 | 0.18 | 0.18 | 74 | 1013.5 |
| 20260506202540 | 3 | 234 | 1.6 | 6.4 | 0.00 | 0.18 | 0.18 | 73 | 1013.5 |
| 20260506201557 | 4 | 244 | 1.6 | 3.2 | 0.00 | 0.18 | 0.18 | 72 | 1013.5 |
| 20260506200534 | 4 | 248 | 3.2 | 6.4 | 0.00 | 0.18 | 0.18 | 70 | 1013.5 |
| 20260506195531 | 4 | 225 | 3.2 | 6.4 | 0.00 | 0.18 | 0.18 | 70 | 1013.6 |
| 20260506194528 | 5 | 244 | 4.8 | 6.4 | 0.00 | 0.18 | 0.18 | 70 | 1013.4 |
| 20260506193524 | 5 | 282 | 4.8 | 9.7 | 0.00 | 0.18 | 0.18 | 64 | 1013.3 |
| 20260506192521 | 6 | 267 | 6.4 | 11.3 | 0.00 | 0.18 | 0.18 | 64 | 1013.4 |
| 20260506191518 | 6 | 281 | 6.4 | 11.3 | 0.00 | 0.18 | 0.18 | 62 | 1013.4 |
| 20260506190615 | 6 | 272 | 6.4 | 9.7 | 0.00 | 0.18 | 0.18 | 61 | 1013.4 |
| 20260506185612 | 6 | 275 | 6.4 | 11.3 | 0.00 | 0.18 | 0.18 | 60 | 1013.3 |
| 20260506184609 | 6 | 279 | 4.8 | 9.7 | 0.00 | 0.18 | 0.18 | 57 | 1013.3 |
| 20260506183626 | 6 | 274 | 6.4 | 9.7 | 0.00 | 0.18 | 0.18 | 56 | 1013.3 |
| 20260506182602 | 6 | 257 | 6.4 | 11.3 | 0.00 | 0.18 | 0.18 | 50 | 1013.2 |
| 20260506181559 | 6 | 270 | 6.4 | 11.3 | 0.00 | 0.18 | 0.18 | 52 | 1013.3 |
| 20260506180556 | 7 | 254 | 6.4 | 12.9 | 0.00 | 0.18 | 0.18 | 53 | 1013.1 |
| 20260506175553 | 7 | 278 | 8.0 | 12.9 | 0.00 | 0.18 | 0.18 | 54 | 1013.2 |
| 20260506174550 | 7 | 257 | 9.7 | 14.5 | 0.00 | 0.18 | 0.18 | 57 | 1013.2 |
| 20260506173547 | 7 | 275 | 9.7 | 14.5 | 0.00 | 0.18 | 0.18 | 58 | 1013.1 |
| 20260506172544 | 7 | 283 | 9.7 | 14.5 | 0.00 | 0.18 | 0.18 | 59 | 1013.1 |
| 20260506171540 | 7 | 280 | 8.0 | 14.5 | 0.00 | 0.18 | 0.18 | 59 | 1013.1 |
| 20260506170537 | 7 | 253 | 9.7 | 17.7 | 0.00 | 0.18 | 0.18 | 63 | 1013.0 |
| 20260506165534 | 7 | 267 | 9.7 | 17.7 | 0.00 | 0.18 | 0.18 | 65 | 1013.0 |
| 20260506164531 | 7 | 266 | 9.7 | 17.7 | 0.00 | 0.18 | 0.18 | 65 | 1013.1 |
| 20260506163528 | 7 | 269 | 11.3 | 17.7 | 0.00 | 0.18 | 0.18 | 61 | 1013.0 |
| 20260506162525 | 7 | 270 | 11.3 | 17.7 | 0.00 | 0.18 | 0.18 | 62 | 1013.0 |
| 20260506161522 | 7 | 252 | 9.7 | 17.7 | 0.00 | 0.18 | 0.18 | 58 | 1013.0 |
| 20260506160518 | 8 | 248 | 11.3 | 17.7 | 0.00 | 0.18 | 0.18 | 58 | 1013.0 |
| 20260506155515 | 8 | 263 | 11.3 | 17.7 | 0.00 | 0.18 | 0.18 | 59 | 1013.0 |
| 20260506154612 | 8 | 282 | 8.0 | 12.9 | 0.00 | 0.18 | 0.18 | 55 | 1013.1 |
| 20260506153609 | 8 | 241 | 11.3 | 20.9 | 0.00 | 0.18 | 0.18 | 57 | 1013.1 |
| 20260506152606 | 8 | 248 | 9.7 | 17.7 | 0.00 | 0.18 | 0.18 | 61 | 1013.0 |
| 20260506151603 | 8 | 252 | 11.3 | 14.5 | 0.00 | 0.18 | 0.18 | 60 | 1013.1 |
| 20260506150600 | 8 | 261 | 8.0 | 17.7 | 0.00 | 0.18 | 0.18 | 60 | 1013.2 |
| 20260506145556 | 8 | 265 | 9.7 | 17.7 | 0.00 | 0.18 | 0.18 | 60 | 1013.3 |
| 20260506144554 | 7 | 254 | 12.9 | 17.7 | 0.00 | 0.18 | 0.18 | 61 | 1013.2 |
| 20260506143550 | 7 | 244 | 12.9 | 20.9 | 0.00 | 0.18 | 0.18 | 60 | 1013.3 |
| 20260506142547 | 7 | 277 | 8.0 | 12.9 | 0.00 | 0.18 | 0.18 | 57 | 1013.3 |
| 20260506141544 | 8 | 261 | 11.3 | 17.7 | 0.00 | 0.18 | 0.18 | 61 | 1013.4 |
| 20260506140540 | 7 | 255 | 8.0 | 17.7 | 0.00 | 0.18 | 0.18 | 60 | 1013.4 |
| 20260506135538 | 8 | 272 | 9.7 | 17.7 | 0.00 | 0.18 | 0.18 | 62 | 1013.3 |
| 20260506134554 | 7 | 280 | 8.0 | 12.9 | 0.00 | 0.18 | 0.18 | 59 | 1013.4 |
| 20260506133531 | 7 | 293 | 9.7 | 20.9 | 0.00 | 0.18 | 0.18 | 60 | 1013.5 |
| 20260506132528 | 7 | 256 | 8.0 | 14.5 | 0.00 | 0.18 | 0.18 | 58 | 1013.5 |
| 20260506131525 | 7 | 273 | 11.3 | 17.7 | 0.00 | 0.18 | 0.18 | 57 | 1013.5 |
| 20260506130522 | 7 | 270 | 11.3 | 17.7 | 0.00 | 0.18 | 0.18 | 62 | 1013.5 |
| 20260506125519 | 7 | 278 | 9.7 | 17.7 | 0.00 | 0.18 | 0.18 | 64 | 1013.5 |
| 20260506124556 | 6 | 251 | 12.9 | 17.7 | 0.00 | 0.18 | 0.18 | 67 | 1013.5 |
| 20260506123633 | 6 | 285 | 9.7 | 17.7 | 0.00 | 0.18 | 0.18 | 68 | 1013.4 |
| 20260506122610 | 6 | 232 | 11.3 | 17.7 | 0.00 | 0.18 | 0.18 | 64 | 1013.5 |
| 20260506121607 | 6 | 268 | 9.7 | 14.5 | 0.00 | 0.18 | 0.18 | 69 | 1013.4 |
| 20260506120603 | 6 | 243 | 12.9 | 20.9 | 0.00 | 0.18 | 0.18 | 72 | 1013.4 |
| 20260506115600 | 6 | 247 | 11.3 | 17.7 | 0.00 | 0.18 | 0.18 | 72 | 1013.6 |
| 20260506114557 | 6 | 244 | 12.9 | 20.9 | 0.00 | 0.18 | 0.18 | 68 | 1013.5 |
| 20260506113554 | 5 | 243 | 11.3 | 22.5 | 0.00 | 0.18 | 0.18 | 72 | 1013.4 |
| 20260506112551 | 5 | 243 | 11.3 | 17.7 | 0.00 | 0.18 | 0.18 | 79 | 1013.6 |
| 20260506111547 | 4 | 225 | 9.7 | 17.7 | 0.00 | 0.18 | 0.18 | 83 | 1013.5 |
| 20260506110624 | 4 | 222 | 16.1 | 24.1 | 0.00 | 0.18 | 0.18 | 82 | 1013.6 |
| 20260506105541 | 6 | 238 | 14.5 | 24.1 | 0.00 | 0.18 | 0.18 | 77 | 1013.5 |
| 20260506104538 | 5 | 241 | 12.9 | 17.7 | 0.00 | 0.18 | 0.18 | 78 | 1013.7 |
| 20260506103555 | 5 | 262 | 12.9 | 20.9 | 0.00 | 0.18 | 0.18 | 79 | 1013.6 |
| 20260506102531 | 5 | 245 | 12.9 | 17.7 | 0.00 | 0.18 | 0.18 | 81 | 1013.5 |
| 20260506101528 | 5 | 232 | 12.9 | 20.9 | 0.00 | 0.18 | 0.18 | 83 | 1013.7 |
| 20260506100525 | 4 | 228 | 14.5 | 20.9 | 0.00 | 0.18 | 0.18 | 85 | 1013.6 |
| 20260506095522 | 4 | 223 | 16.1 | 24.1 | 0.00 | 0.18 | 0.18 | 87 | 1013.5 |
| 20260506094519 | 4 | 218 | 17.7 | 25.7 | 0.00 | 0.18 | 0.18 | 87 | 1013.6 |
| 20260506093516 | 3 | 221 | 17.7 | 22.5 | 0.00 | 0.18 | 0.18 | 88 | 1013.5 |
| 20260506092613 | 3 | 229 | 20.9 | 25.7 | 0.00 | 0.18 | 0.18 | 87 | 1013.5 |
| 20260506091610 | 3 | 215 | 17.7 | 24.1 | 0.00 | 0.18 | 0.18 | 87 | 1013.6 |
| 20260506090607 | 4 | 210 | 19.3 | 24.1 | 0.00 | 0.18 | 0.18 | 86 | 1013.5 |
| 20260506085603 | 4 | 232 | 11.3 | 17.7 | 0.00 | 0.18 | 0.18 | 84 | 1013.6 |
| 20260506084600 | 3 | 229 | 12.9 | 17.7 | 0.00 | 0.18 | 0.18 | 86 | 1013.7 |
| 20260506083618 | 3 | 254 | 11.3 | 17.7 | 0.00 | 0.18 | 0.18 | 85 | 1013.6 |
| 20260506082614 | 5 | 263 | 14.5 | 25.7 | 0.00 | 0.18 | 0.18 | 81 | 1013.6 |
| 20260506081551 | 5 | 222 | 12.9 | 17.7 | 0.00 | 0.18 | 0.18 | 78 | 1013.5 |
| 20260506080548 | 5 | 248 | 8.0 | 17.7 | 0.00 | 0.18 | 0.18 | 79 | 1013.4 |
| 20260506072535 | 3 | 230 | 6.4 | 11.3 | 0.00 | 0.18 | 0.18 | 83 | 1013.3 |
| 20260506071532 | 3 | 244 | 8.0 | 11.3 | 0.03 | 0.18 | 0.18 | 85 | 1013.3 |
| 20260506070529 | 3 | 235 | 9.7 | 14.5 | 0.03 | 0.18 | 0.18 | 88 | 1013.3 |
| 20260506062516 | 1 | 217 | 17.7 | 22.5 | 0.05 | 0.20 | 0.18 | 90 | 1013.5 |
| 20260506061613 | 1 | 217 | 22.5 | 27.4 | 0.03 | 0.18 | 0.15 | 89 | 1013.5 |
| 20260506060610 | 1 | 225 | 19.3 | 25.7 | 0.05 | 0.18 | 0.15 | 87 | 1013.4 |
| 20260506050551 | 2 | 276 | 6.4 | 12.9 | 0.03 | 0.13 | 0.10 | 86 | 1013.4 |
| 20260506044545 | 2 | 338 | 12.9 | 17.7 | 0.05 | 0.13 | 0.10 | 86 | 1013.5 |
| 20260506043602 | 2 | 318 | 12.9 | 17.7 | 0.05 | 0.13 | 0.10 | 85 | 1013.7 |
| 20260506042538 | 2 | 0 | 1.6 | 6.4 | 0.05 | 0.10 | 0.05 | 86 | 1013.7 |
| 20260506041535 | 2 | 353 | 0.0 | 3.2 | 0.05 | 0.10 | 0.05 | 87 | 1013.6 |
| 20260506040532 | 2 | 350 | 3.2 | 6.4 | 0.05 | 0.10 | 0.05 | 87 | 1013.7 |
| 20260506035529 | 2 | 329 | 6.4 | 11.3 | 0.05 | 0.10 | 0.05 | 88 | 1013.9 |
| 20260506034526 | 2 | 240 | 8.0 | 12.9 | 0.03 | 0.05 | 0.03 | 87 | 1013.6 |
| 20260506033523 | 1 | 214 | 11.3 | 14.5 | 0.03 | 0.05 | 0.03 | 88 | 1013.5 |
| 20260506032520 | 1 | 206 | 9.7 | 12.9 | 0.00 | 0.03 | 0.00 | 89 | 1013.5 |
| 20260506031516 | 1 | 194 | 11.3 | 14.5 | 0.00 | 0.03 | 0.00 | 88 | 1013.7 |
| 20260506030614 | 1 | 203 | 9.7 | 14.5 | 0.00 | 0.03 | 0.00 | 85 | 1013.6 |
| 20260506025631 | 2 | 251 | 4.8 | 9.7 | 0.00 | 0.03 | 0.00 | 85 | 1013.8 |
| 20260506024607 | 1 | 231 | 4.8 | 6.4 | 0.00 | 0.03 | 0.00 | 84 | 1013.9 |
| 20260506023604 | 2 | 252 | 4.8 | 6.4 | 0.00 | 0.03 | 0.00 | 83 | 1013.9 |
| 20260506022601 | 1 | 259 | 4.8 | 9.7 | 0.00 | 0.03 | 0.00 | 84 | 1014.0 |
| 20260506021618 | 2 | 256 | 3.2 | 6.4 | 0.00 | 0.03 | 0.00 | 85 | 1014.2 |
| 20260506020554 | 2 | 271 | 3.2 | 6.4 | 0.00 | 0.05 | 0.00 | 87 | 1014.1 |
| 20260506015551 | 2 | 312 | 6.4 | 12.9 | 0.00 | 0.10 | 0.00 | 88 | 1014.2 |
| 20260506014548 | 2 | 352 | 9.7 | 17.7 | 0.00 | 0.10 | 0.00 | 89 | 1014.6 |
| 20260506013545 | 2 | 340 | 11.3 | 17.7 | 0.00 | 0.13 | 0.00 | 88 | 1014.5 |
| 20260506012602 | 2 | 334 | 12.9 | 20.9 | 0.00 | 0.13 | 0.00 | 88 | 1014.6 |
| 20260506011539 | 2 | 325 | 4.8 | 9.7 | 0.00 | 0.13 | 0.00 | 89 | 1014.5 |
| 20260506010556 | 2 | 352 | 9.7 | 11.3 | 0.00 | 0.15 | 0.00 | 88 | 1014.4 |
| 20260506005553 | 1 | 5 | 6.4 | 12.9 | 0.00 | 0.15 | 0.00 | 87 | 1014.6 |
| 20260506004529 | 2 | 19 | 1.6 | 6.4 | 0.00 | 0.15 | 0.00 | 86 | 1014.3 |
| 20260506003526 | 2 | 339 | 1.6 | 9.7 | 0.00 | 0.15 | 0.00 | 85 | 1014.6 |
| 20260506002523 | 1 | 68 | 1.6 | 3.2 | 0.00 | 0.15 | 0.00 | 85 | 1014.2 |
| 20260506001520 | 1 | 45 | 3.2 | 3.2 | 0.00 | 0.15 | 0.00 | 84 | 1014.4 |
| 20260506000517 | 2 | 0 | 1.6 | 3.2 | 0.00 | 0.15 | 0.00 | 83 | 1014.5 |
| 20260505235634 | 2 | 350 | 3.2 | 6.4 | 0.00 | 0.15 | 0.00 | 84 | 1014.7 |